HAWK-C

Last updated on Fri Dec 29 2023 00:03:29 GMT+0000 (Coordinated Universal Time)

1 43799U 18099AT 23361.68869265 .00005119 00000+0 40424-3 0 9996 2 43799 97.5359 59.3516 0008632 156.4175 203.7446 15.01092766277491
UTC large
Height (km)
Speed (km/s)
/
Latitude / Longitude
Inclination (degrees)
Orbital Period (minutes)
Azimuth
Elevation
Range (km)
Doppler Factor

Next 0 passes for location: London (51.5072 / 0.1276)

Sorry there are no passes over London.